Home > Weather > Lafayette > Past weeks

Flag for U.S.A. Weather for the Past 2 Weeks in Lafayette, Louisiana, U.S.A.

Now
45 °F

Clear.


Feels Like: 40 °F
Forecast: 37 / 54 °F
Wind: 10 mph from West

Location: Lafayette Regional Airport

Current Time: Feb 9, 2016 at 12:46:00 AM

Latest Report: Feb 8, 2016 at 11:53 PM


Visibility: 10 mi

Pressure: 30.19 "Hg

Humidity: 38%

Dew point: 21 °F

Location of LafayetteLocation

Historic Weather in Lafayette — Graph

°F

Lafayette Temperature Yesterday

Maximum temperature yesterday: 61 °F (at 1:53 PM)
Minimum temperature yesterday: 42 °F (at 12:53 AM)
Average temperature yesterday: 51 °F

High & Low Weather Summary for the Past Weeks

 TemperatureHumidityPressure
High75 °F (Jan 31, 12:53 PM)100% (Jan 29, 7:53 AM)30.53 "Hg (Jan 29, 7:53 AM)
Low34 °F (Feb 5, 6:53 AM)14% (Feb 8, 1:53 PM)29.68 "Hg (Feb 2, 3:04 PM)
Average54 °F67%30.11 "Hg
* Reported Jan 24 10:53 PM — Feb 8 10:53 PM, Lafayette, Weather by CustomWeather, © 2016

Note: Actual official high and low records may vary slightly from our data, if they occured in-between our weather recording intervals... More about our weather records

Advertising

Lafayette Weather History for the Previous 24 Hours

 ConditionsComfort  
Time TempWeatherWind HumidityBarometerVisibility
10:53 PM
Mon, Feb 8
45 °FClear.8 mph37%30.19 "Hg10 mi
9:53 PM47 °FClear.7 mph32%30.19 "Hg10 mi
8:53 PM48 °FClear.6 mph29%30.18 "Hg10 mi
7:53 PM50 °FClear.12 mph26%30.16 "Hg10 mi
6:53 PM52 °FClear.16 mph21%30.14 "Hg10 mi
5:53 PM54 °FClear.22 mph20%30.11 "Hg10 mi
4:53 PM57 °FSunny.21 mph19%30.09 "Hg10 mi
3:53 PM59 °FSunny.25 mph18%30.09 "Hg10 mi
2:53 PM60 °FSunny.29 mph16%30.09 "Hg10 mi
1:53 PM61 °FSunny.28 mph14%30.10 "Hg10 mi
12:53 PM60 °FSunny.24 mph17%30.11 "Hg10 mi
11:53 AM58 °FSunny.18 mph25%30.15 "Hg10 mi
10:53 AM56 °FSunny.21 mph29%30.20 "Hg10 mi
9:53 AM54 °FSunny.17 mph34%30.20 "Hg10 mi
8:53 AM50 °FSunny.18 mph52%30.20 "Hg10 mi
7:53 AM48 °FSunny.10 mph68%30.18 "Hg10 mi
6:53 AM47 °FClear.9 mph77%30.16 "Hg10 mi
5:53 AM47 °FClear.7 mph83%30.13 "Hg10 mi
4:53 AM48 °FClear.10 mph86%30.12 "Hg10 mi
3:53 AM46 °FClear.8 mph86%30.11 "Hg10 mi
2:53 AM42 °FClear.5 mph89%30.12 "Hg10 mi
1:53 AM42 °FClear.5 mph82%30.14 "Hg10 mi
12:53 AM42 °FClear.3 mph82%30.15 "Hg10 mi
Weather by CustomWeather, © 2016

See weather overviewHow to use our weather pages